Stations météo

réclame
Mon MeteoGroup
La Rochelle/Ile de Re, France (7316): Température de l'air & dewpoint: 16.10.2017 06:00:00 - 22.10.2017 06:00:00 (CEST)La Rochelle/Ile de Re, France (7316): Vitesse du vent & gusts: 16.10.2017 06:00:00 - 22.10.2017 06:00:00 (CEST)La Rochelle/Ile de Re, France (7316): Direction du vent: 16.10.2017 06:00:00 - 22.10.2017 06:00:00 (CEST)La Rochelle/Ile de Re, France (7316): reduced air pressure: 16.10.2017 06:00:00 - 22.10.2017 06:00:00 (CEST)La Rochelle/Ile de Re, France (7316): visibility: 16.10.2017 06:00:00 - 22.10.2017 06:00:00 (CEST)La Rochelle/Ile de Re, France (7316): Ensoleillement: 16.10.2017 06:00:00 - 22.10.2017 06:00:00 (CEST)La Rochelle/Ile de Re, France (7316): Quantités de précipitations: 16.10.2017 06:00:00 - 22.10.2017 06:00:00 (CEST)
Date & Time tt [°C] td [°C] ff [km/h] ff [knt] fx [km/h] fx [knt] dd ppp [hPa] vv [km] sd [min] rr [mm]
22.10.2017 06:00:00 13,5 7,3 27 14 55 30 W 1023,6 19 0 0,0
22.10.2017 05:00:00 13,2 7,6 29 16 44 24 W 1023,2 42 0 0,0
22.10.2017 04:00:00 13,2 6,8 26 14 38 21 W 1023,2 10 0 0,0
22.10.2017 03:00:00 13,3 7,9 26 14 41 22 W 1023,3 10 0 0,0
22.10.2017 02:00:00 12,8 7,0 26 14 61 33 W 1023,4 10 0 0,2
22.10.2017 01:00:00 13,7 6,8 28 15 48 26 W 1023,4 10 0 0,0
22.10.2017 00:00:00 13,9 8,1 26 14 44 24 W 1023,1 43 0 0,0
21.10.2017 23:00:00 13,5 7,5 31 17 53 29 W 1022,8 53 0 0,0
21.10.2017 22:00:00 13,8 8,0 29 16 51 28 W 1022,4 40 0 0,2
21.10.2017 21:00:00 13,2 7,8 36 20 57 31 W 1022,4 16 0 0,2
21.10.2017 20:00:00 14,6 8,5 35 19 53 29 W 1021,5 40 0 0,0
21.10.2017 19:00:00 14,5 9,1 29 16 48 26 W 1020,9 39 20 0,2
21.10.2017 18:00:00 13,5 9,0 31 17 64 34 W 1020,7 6 11 0,6
21.10.2017 17:00:00 16,7 8,9 35 19 61 33 W 1020,0 20 20 0,0
21.10.2017 16:00:00 17,4 8,3 35 19 59 32 W 1019,5 10 35 0,0
21.10.2017 15:00:00 18,1 9,4 34 18 58 31 W 1019,3 10 26 0,0
21.10.2017 14:00:00 17,8 8,4 31 17 53 29 W 1019,4 10 9 0,0
21.10.2017 13:00:00 17,7 8,8 28 15 57 31 W 1019,4 21 42 0,0
21.10.2017 12:00:00 17,1 9,8 35 19 59 32 W 1019,2 10 2 0,0
21.10.2017 11:00:00 17,0 9,4 34 18 59 32 W 1018,7 10 10 0,0
21.10.2017 10:00:00 17,2 9,9 31 17 50 27 W 1018,0 10 4 0,0
21.10.2017 09:00:00 16,6 11,5 22 12 41 22 W 1017,4 10 0 0,2
21.10.2017 08:00:00 16,2 11,8 24 13 39 21 W 1016,6 10 0 0,4
21.10.2017 07:00:00 16,2 14,2 17 9 43 23 WSW 1016,2 16 0 1,2
21.10.2017 06:00:00 16,1 14,6 20 11 42 23 WSW 1015,7 14 0 0,2
21.10.2017 05:00:00 16,0 13,8 22 12 44 24 W 1015,5 10 0 0,0
21.10.2017 04:00:00 16,2 14,4 39 21 50 27 WNW 1015,3 16 0 0,2
21.10.2017 03:00:00 17,8 14,5 21 11 36 19 S 1013,7 10 0 0,0
21.10.2017 02:00:00 17,5 14,6 21 11 36 19 S 1013,8 10 0 0,0
21.10.2017 01:00:00 17,2 14,5 22 12 37 20 S 1014,0 10 0 0,0
21.10.2017 00:00:00 17,7 14,0 21 11 33 18 S 1014,5 10 0 0,0
20.10.2017 23:00:00 17,6 15,2 18 10 28 15 SSE 1014,8 10 0 0,0
20.10.2017 22:00:00 17,9 15,2 18 10 28 15 S 1015,2 18 0 0,0
20.10.2017 21:00:00 18,0 14,1 20 11 27 15 S 1015,3 43 0 0,0
20.10.2017 20:00:00 17,5 13,8 14 7 24 13 S 1015,6 50 0 0,0
20.10.2017 19:00:00 17,8 12,9 17 9 29 16 SSW 1015,6 58 31 0,0
20.10.2017 18:00:00 18,4 12,6 18 10 28 15 SSW 1015,7 10 - 0,0
20.10.2017 17:00:00 19,0 11,6 19 11 34 18 SSW 1015,9 39 60 0,0
20.10.2017 16:00:00 19,2 10,7 18 10 36 19 SW 1016,2 10 58 0,0
20.10.2017 15:00:00 18,9 11,2 18 10 30 16 SW 1016,4 10 60 0,0
20.10.2017 14:00:00 18,8 10,9 16 9 27 14 SSW 1016,5 10 60 0,0
20.10.2017 13:00:00 18,5 10,6 14 8 22 12 SSW 1017,1 53 60 0,0
20.10.2017 12:00:00 17,9 10,3 11 6 21 11 SW 1016,9 10 50 0,0
20.10.2017 11:00:00 16,7 10,3 7 4 14 7 W 1016,7 20 18 0,0
20.10.2017 10:00:00 15,3 10,5 10 5 16 8 W 1016,2 46 0 0,0
20.10.2017 09:00:00 14,5 9,7 7 4 17 9 W 1015,4 46 0 0,0
20.10.2017 08:00:00 14,6 10,6 13 7 19 11 W 1014,9 40 0 0,0
20.10.2017 07:00:00 14,3 10,9 10 5 19 11 W 1014,3 43 0 0,0
20.10.2017 06:00:00 14,4 10,8 12 7 21 12 W 1013,7 43 0 0,0
20.10.2017 05:00:00 14,2 10,6 15 8 23 13 W 1013,3 10 0 0,0
20.10.2017 04:00:00 14,8 11,4 19 10 26 14 W 1012,9 38 0 0,0
20.10.2017 03:00:00 15,1 12,2 18 10 29 16 W 1012,2 10 0 0,0
20.10.2017 02:00:00 15,4 14,1 13 7 41 22 W 1011,6 20 0 0,2
20.10.2017 01:00:00 16,1 14,6 37 20 64 35 WSW 1010,7 8 0 0,2
20.10.2017 00:00:00 16,6 13,5 34 18 59 32 SW 1010,2 20 0 0,2
19.10.2017 23:00:00 16,5 12,6 34 18 62 33 SW 1009,9 6 0 0,2
19.10.2017 22:00:00 17,8 14,1 29 16 48 26 S 1009,0 42 0 0,0
19.10.2017 21:00:00 17,5 13,8 30 16 45 24 S 1009,0 55 0 0,0
19.10.2017 20:00:00 17,5 13,8 25 13 41 22 S 1009,2 60 0 0,0
19.10.2017 19:00:00 17,7 13,0 22 12 42 23 S 1009,1 60 21 0,0
19.10.2017 18:00:00 18,1 12,8 22 12 36 19 SSW 1009,1 54 0 0,0
19.10.2017 17:00:00 18,7 12,9 18 10 32 18 SSW 1008,9 39 30 0,0
19.10.2017 16:00:00 19,2 12,9 21 11 32 17 SW 1009,0 10 57 0,0
19.10.2017 15:00:00 19,5 12,5 22 12 33 18 SSW 1009,2 10 60 0,0
19.10.2017 14:00:00 19,4 12,6 18 10 30 16 SW 1009,7 10 60 0,0
19.10.2017 13:00:00 19,0 13,8 21 11 32 18 SW 1009,8 10 54 0,0
19.10.2017 12:00:00 18,6 14,9 18 10 30 16 WSW 1009,4 10 39 0,0
19.10.2017 11:00:00 16,9 15,6 16 9 32 17 S 1009,2 17 4 0,0
19.10.2017 10:00:00 15,8 14,5 21 11 32 17 SSE 1009,1 10 13 0,0
19.10.2017 09:00:00 16,9 14,7 15 8 25 14 S 1008,6 10 10 0,0
19.10.2017 08:00:00 16,6 14,4 8 4 11 6 S 1008,4 10 0 0,0
19.10.2017 07:00:00 16,9 14,2 8 5 12 7 SW 1008,1 38 0 0,0
19.10.2017 06:00:00 16,7 14,2 6 3 16 9 WSW 1007,7 40 0 0,0
19.10.2017 05:00:00 16,7 14,5 11 6 21 11 W 1007,9 10 0 0,0
19.10.2017 04:00:00 17,1 15,1 12 6 21 12 WSW 1008,0 20 0 0,0
19.10.2017 03:00:00 17,0 15,7 13 7 24 13 SW 1007,8 17 0 0,0
19.10.2017 02:00:00 16,5 16,0 11 6 16 8 SSW 1007,5 6 0 0,0
19.10.2017 01:00:00 15,3 14,5 5 3 6 4 SSE 1007,5 2,6 0 0,2
19.10.2017 00:00:00 16,6 14,8 5 3 12 7 SSE 1007,9 7 0 0,0
18.10.2017 23:00:00 17,4 16,1 11 6 18 10 NNW 1008,1 9 0 1,6
18.10.2017 22:00:00 17,5 16,0 6 3 11 6 NNW 1008,6 2,7 0 1,0
18.10.2017 21:00:00 17,4 15,7 10 6 19 10 NNW 1008,4 14 0 0,0
18.10.2017 20:00:00 18,0 16,0 12 6 15 8 NNW 1008,4 19 0 0,0
18.10.2017 19:00:00 18,0 16,0 8 4 9 5 WNW 1008,4 10 - 0,0
18.10.2017 18:00:00 18,6 15,5 5 3 15 8 WSW 1008,8 10 0 0,0
18.10.2017 17:00:00 19,2 15,3 9 5 14 8 SW 1008,8 10 0 0,0
18.10.2017 16:00:00 19,7 15,8 13 7 26 14 SW 1009,2 10 0 0,0
18.10.2017 15:00:00 20,8 15,3 15 8 22 12 S 1009,7 10 3 0,0
18.10.2017 14:00:00 21,0 15,5 9 5 21 11 SSE 1010,3 10 11 0,0
18.10.2017 13:00:00 19,9 15,7 15 8 28 15 SSE 1011,0 10 30 0,0
18.10.2017 12:00:00 18,9 15,6 21 11 29 15 SSE 1011,0 10 52 0,0
18.10.2017 11:00:00 17,0 15,2 16 9 24 13 SE 1011,1 10 1 0,0
18.10.2017 10:00:00 16,5 15,0 18 10 27 14 SE 1011,3 10 0 0,0
18.10.2017 09:00:00 16,4 14,8 19 10 28 15 SE 1011,4 10 0 0,4
18.10.2017 08:00:00 16,2 14,2 16 9 26 14 SSE 1011,6 13 0 0,2
18.10.2017 07:00:00 16,6 13,7 14 8 23 13 SE 1011,5 21 0 0,0
18.10.2017 06:00:00 16,5 13,8 15 8 23 12 SSE 1011,7 10 0 0,0
18.10.2017 05:00:00 17,3 14,4 16 9 26 14 SSE 1012,0 10 0 0,0
18.10.2017 04:00:00 17,1 14,2 11 6 21 11 SE 1012,4 22 0 0,0
18.10.2017 03:00:00 17,8 14,1 15 8 22 12 SSE 1012,9 27 0 0,0
18.10.2017 02:00:00 18,6 14,5 15 8 26 14 SSE 1013,3 10 0 0,0
18.10.2017 01:00:00 18,1 15,5 9 5 26 14 SSE 1013,7 10 0 0,0
18.10.2017 00:00:00 19,1 15,2 16 9 23 13 SSE 1013,8 10 0 0,0
17.10.2017 23:00:00 19,0 14,7 11 6 16 9 SSE 1014,0 10 0 0,0
17.10.2017 22:00:00 19,6 15,3 11 6 17 9 SSE 1014,0 10 0 0,0
17.10.2017 21:00:00 20,1 15,5 9 5 18 10 S 1014,0 10 0 0,0
17.10.2017 20:00:00 20,5 15,3 11 6 21 11 S 1014,0 10 0 0,0
17.10.2017 19:00:00 21,1 15,2 9 5 21 11 S 1013,9 10 46 0,0
17.10.2017 18:00:00 23,3 14,3 13 7 30 16 S 1014,2 10 49 0,0
17.10.2017 17:00:00 24,1 15,0 13 7 22 12 S 1014,5 10 60 0,0
17.10.2017 16:00:00 24,4 15,1 15 8 24 13 SSE 1014,6 10 60 0,0
17.10.2017 15:00:00 24,8 15,7 16 9 27 14 SE 1015,1 10 60 0,0
17.10.2017 14:00:00 22,9 15,2 18 10 32 17 SSE 1016,2 10 57 0,0
17.10.2017 13:00:00 21,1 15,2 21 11 33 18 SSE 1017,2 10 44 0,0
17.10.2017 12:00:00 19,5 14,9 24 13 40 22 SSE 1017,7 10 31 0,0
17.10.2017 11:00:00 18,0 14,5 26 14 41 22 SSE 1018,3 10 58 0,0
17.10.2017 10:00:00 16,5 14,0 22 12 39 21 SE 1018,9 10 60 0,0
17.10.2017 09:00:00 15,3 13,3 24 13 36 19 SE 1019,1 16 13 0,0
17.10.2017 08:00:00 15,0 13,4 16 9 25 13 SE 1019,4 10 0 0,0
17.10.2017 07:00:00 14,2 12,8 13 7 19 11 ESE 1019,7 10 0 0,0
17.10.2017 06:00:00 13,6 11,6 14 7 26 14 E 1020,1 16 0 0,0
17.10.2017 05:00:00 14,5 12,0 18 10 26 14 E 1020,4 16 0 0,0
17.10.2017 04:00:00 14,3 11,6 16 9 23 12 ENE 1021,1 10 0 0,0
17.10.2017 03:00:00 13,7 11,4 10 6 19 10 ENE 1022,1 16 0 0,0
17.10.2017 02:00:00 13,5 11,5 11 6 17 9 NNE 1022,6 17 0 0,0
17.10.2017 01:00:00 13,7 11,0 4 2 8 5 N 1023,4 10 0 0,0
17.10.2017 00:00:00 13,8 11,3 8 5 11 6 NNE 1023,6 15 0 0,0
16.10.2017 23:00:00 14,7 12,0 9 5 16 8 NNE 1023,4 16 0 0,0
16.10.2017 22:00:00 15,9 12,3 11 6 23 12 N 1023,3 16 0 0,0
16.10.2017 21:00:00 16,6 12,7 17 9 25 13 N 1023,0 16 0 0,0
16.10.2017 20:00:00 17,4 13,3 21 12 30 16 NNW 1022,9 18 0 0,0
16.10.2017 19:00:00 18,0 15,4 18 10 26 14 NW 1022,3 11 0 0,0
16.10.2017 18:00:00 18,6 15,3 18 10 25 13 WNW 1022,1 10 0 0,0
16.10.2017 17:00:00 19,8 16,4 16 9 23 12 WNW 1021,8 10 0 0,0
16.10.2017 16:00:00 20,9 16,9 9 5 27 15 WSW 1021,6 16 0 0,0
16.10.2017 15:00:00 21,8 16,3 18 10 33 18 SW 1021,5 10 15 0,0
16.10.2017 14:00:00 22,7 16,0 16 9 29 16 SSW 1021,3 10 55 0,0
16.10.2017 13:00:00 21,9 16,0 18 10 32 17 S 1021,2 10 60 0,0
16.10.2017 12:00:00 20,5 15,9 22 12 35 19 SSE 1020,9 35 60 0,0
16.10.2017 11:00:00 19,1 15,4 27 15 41 22 SSE 1020,4 36 42 0,0
16.10.2017 10:00:00 18,2 14,9 29 16 47 25 SSE 1019,4 10 60 0,0
16.10.2017 09:00:00 17,4 14,5 29 16 45 24 SSE 1018,9 10 14 0,0
16.10.2017 08:00:00 17,2 14,5 28 15 42 23 SSE 1018,3 10 0 0,0
16.10.2017 07:00:00 17,1 14,2 25 14 41 22 SE 1018,4 32 0 0,0
16.10.2017 06:00:00 17,7 14,4 29 16 43 23 SSE 1018,4 37 0 0,0

tt = Température de l'air
td = dewpoint
ff = Vitesse du vent
fx = gusts
dd = Direction du vent
ppp = reduced air pressure
vv = visibility
sd = Ensoleillement
rr = Quantités de précipitations

stations d'obs. à proximité